This is the latest recevied weather packets stored in our database for station/object KG4YZY-1. If no packets are shown the sender has not sent any weather packets the latest 1 day(s).
| Time | Temp. | Humidity | Pressure | Rain* | Wind** | Luminosity | Snow |
|---|---|---|---|---|---|---|---|
| 1778018103 | 27.22° C | 66% | 1016.2 hPa | 0 mm | 1.34 m/s, 316° | - | - |
| 1778017804 | 27.22° C | 66% | 1016.3 hPa | 0 mm | 1.79 m/s, 303° | - | - |
| 1778017503 | 27.22° C | 65% | 1016.3 hPa | 0 mm | 2.68 m/s, 268° | - | - |
| 1778017204 | 27.22° C | 65% | 1016.2 hPa | 0 mm | 2.24 m/s, 270° | - | - |
| 1778016903 | 27.22° C | 65% | 1016.2 hPa | 0 mm | 1.34 m/s, 296° | - | - |
| 1778016603 | 27.22° C | 64% | 1016.2 hPa | 0 mm | 2.68 m/s, 312° | - | - |
| 1778016303 | 27.22° C | 65% | 1016.2 hPa | 0 mm | 0.89 m/s, 313° | - | - |
| 1778016004 | 27.22° C | 65% | 1016.2 hPa | 0 mm | 2.24 m/s, 256° | - | - |
| 1778015704 | 27.22° C | 65% | 1016.3 hPa | 0 mm | 1.79 m/s, 299° | - | - |
| 1778015404 | 27.22° C | 64% | 1016.2 hPa | 0 mm | 2.24 m/s, 307° | - | - |
| 1778015103 | 27.22° C | 62% | 1016.1 hPa | 0 mm | 2.24 m/s, 299° | - | - |
| 1778014804 | 27.78° C | 61% | 1016.1 hPa | 0 mm | 3.13 m/s, 307° | - | - |
| 1778014504 | 27.78° C | 62% | 1016.1 hPa | 0 mm | 1.34 m/s, 325° | - | - |
| 1778014204 | 27.78° C | 61% | 1016.1 hPa | 0 mm | 2.24 m/s, 330° | - | - |
| 1778013903 | 27.78° C | 60% | 1016.1 hPa | 0 mm | 2.68 m/s, 297° | - | - |
| 1778013604 | 27.78° C | 61% | 1016 hPa | 0 mm | 1.34 m/s, 278° | - | - |
| 1778013303 | 27.78° C | 60% | 1016.1 hPa | 0 mm | 2.68 m/s, 295° | - | - |
| 1778013004 | 27.78° C | 61% | 1016 hPa | 0 mm | 1.79 m/s, 312° | - | - |
| 1778012703 | 27.78° C | 61% | 1016 hPa | 0 mm | 1.79 m/s, 280° | - | - |
| 1778012404 | 27.78° C | 60% | 1016.1 hPa | 0 mm | 2.68 m/s, 288° | - | - |
| 1778012103 | 28.33° C | 60% | 1016.2 hPa | 0 mm | 2.68 m/s, 281° | - | - |
| 1778011804 | 28.33° C | 60% | 1016.2 hPa | 0 mm | 2.68 m/s, 267° | - | - |
| 1778011504 | 28.33° C | 59% | 1016.3 hPa | 0 mm | 2.24 m/s, 332° | - | - |
| 1778011204 | 28.33° C | 59% | 1016.3 hPa | 0 mm | 2.24 m/s, 279° | - | - |
| 1778010904 | 28.33° C | 59% | 1016.4 hPa | 0 mm | 2.68 m/s, 256° | - | - |
* Rain latest hour (hover to see other rain measurements)
** Current wind speed in m/s (hover to see current wind gust speed)